Date String (YYYY-MM-DD hh:mm:ss) UTC,Instrument flags,absolute air pressure of the measurement (hPa),sample flow rate (lpm),inlet stack bypass flow (lpm),air temperature of the measurement (°C),ambient temperature measured by the external sensor (°C),aerosol sample conditioner tube jacket temperature (°C),OPC LED temperature (°C),internal box temperature (°C),relative humidity of the measurement (%),span deviation,mass concentration of particles derived from Lorenz-Mie calculation of OPC scattering (μg/m³),mass concentration of particles derived from Lorenz-Mie calculation of OPC scattering (μg/m³),mass concentration of particles derived from Lorenz-Mie calculation of OPC scattering (μg/m³)
DateTimeUTC,F1_M11,P_M11,Q1_M11,Q2_M11,T1_M11,T2_M11,T3_M11,T4_M11,T5_M11,U1_M11,ZSPAN_M11,X0_M11,X2_M11,X1_M11
2023-07-01 23:00:00,SystemResetWarning,0833.3,5.02,000.00,028.7,025.0,000.0,037.0,030.1,30.8,0000.0,0007.74,0004.58,0004.26
2023-07-01 23:01:00,SystemResetWarning,0833.3,4.99,000.00,028.7,025.4,000.0,037.0,030.1,29.6,0000.0,0007.71,0004.57,0004.26
2023-07-01 23:02:00,SystemResetWarning,0833.3,5.00,000.00,028.7,025.9,000.0,037.1,030.2,29.5,0000.0,0007.67,0004.55,0004.25
2023-07-01 23:03:00,SystemResetWarning,0833.3,5.00,000.00,028.7,026.3,000.0,037.1,030.3,30.2,0000.0,0007.70,0004.53,0004.24
2023-07-01 23:04:00,SystemResetWarning,0833.3,5.01,000.00,028.7,026.7,000.0,037.1,030.4,29.1,0000.0,0008.45,0004.54,0004.23
2023-07-01 23:05:00,SystemResetWarning,0833.4,5.00,000.00,028.8,027.1,000.0,037.2,030.5,28.5,0000.0,0008.72,0004.58,0004.22
2023-07-01 23:06:00,SystemResetWarning,0833.4,4.99,000.00,028.8,027.4,000.0,037.2,030.6,29.1,0000.0,0008.99,0004.61,0004.23
2023-07-01 23:07:00,SystemResetWarning,0833.4,4.99,000.00,028.9,027.6,000.0,037.2,030.6,28.2,0000.0,0008.77,0004.61,0004.23
2023-07-01 23:08:00,SystemResetWarning,0833.4,5.00,000.00,028.9,027.8,000.0,037.2,030.7,28.2,0000.0,0008.83,0004.61,0004.22
2023-07-01 23:09:00,SystemResetWarning,0833.3,5.00,000.00,028.9,026.5,000.0,037.1,030.5,26.7,0000.0,0008.74,0004.61,0004.23
2023-07-01 23:10:00,SystemResetWarning,0833.3,5.01,000.00,028.9,025.0,000.0,037.0,030.2,27.5,0000.0,0008.63,0004.62,0004.25
2023-07-01 23:11:00,SystemResetWarning,0833.3,5.02,000.00,028.8,024.7,000.0,037.0,030.1,28.8,-000.2,0008.81,0004.62,0004.25
2023-07-01 23:12:00,SystemResetWarning,0833.3,5.00,000.00,028.7,025.0,000.0,037.0,030.0,28.0,0000.0,0009.01,0004.61,0004.24
2023-07-01 23:13:00,SystemResetWarning,0833.3,5.00,000.00,028.7,025.5,000.0,037.0,030.1,27.8,0000.0,0009.02,0004.60,0004.23
2023-07-01 23:14:00,SystemResetWarning,0833.4,5.00,000.00,028.7,026.0,000.0,037.1,030.2,28.8,0000.0,0008.93,0004.61,0004.23
2023-07-01 23:15:00,SystemResetWarning,0833.4,5.00,000.00,028.7,026.4,000.0,037.1,030.3,27.6,0000.0,0008.12,0004.57,0004.23
2023-07-01 23:16:00,SystemResetWarning,0833.4,4.99,000.00,028.7,026.8,000.0,037.1,030.4,27.1,0000.0,0007.84,0004.53,0004.22
2023-07-01 23:17:00,SystemResetWarning,0833.4,5.00,000.00,028.8,027.1,000.0,037.1,030.5,26.8,0000.0,0007.59,0004.52,0004.22
2023-07-01 23:18:00,SystemResetWarning,0833.4,5.00,000.00,028.8,027.4,000.0,037.2,030.5,26.6,0000.0,0007.50,0004.50,0004.22
2023-07-01 23:19:00,SystemResetWarning,0833.4,5.00,000.00,028.9,027.7,000.0,037.2,030.6,26.3,0000.0,0008.01,0004.46,0004.21
2023-07-01 23:20:00,SystemResetWarning,0833.4,5.00,000.00,028.9,027.6,000.0,037.2,030.7,26.7,0000.0,0008.05,0004.42,0004.19
2023-07-01 23:21:00,SystemResetWarning,0833.4,4.99,000.00,028.9,026.0,000.0,037.1,030.4,27.1,-000.2,0008.06,0004.42,0004.18
2023-07-01 23:22:00,SystemResetWarning,0833.4,5.01,000.00,028.8,024.7,000.0,037.0,030.2,27.5,-000.3,0008.05,0004.44,0004.17
2023-07-01 23:23:00,SystemResetWarning,0833.4,5.01,000.00,028.7,024.7,000.0,036.9,030.0,28.0,-000.7,0008.06,0004.43,0004.15
2023-07-01 23:24:00,SystemResetWarning,0833.4,5.00,000.00,028.6,025.0,000.0,037.0,030.0,27.9,-000.5,0008.38,0004.44,0004.14
2023-07-01 23:25:00,SystemResetWarning,0833.4,5.00,000.00,028.6,025.5,000.0,037.0,030.1,27.7,-000.7,0008.53,0004.43,0004.13
2023-07-01 23:26:00,SystemResetWarning,0833.4,5.00,000.00,028.6,026.0,000.0,037.1,030.2,28.0,-001.3,0008.90,0004.44,0004.13
2023-07-01 23:27:00,SystemResetWarning,0833.4,4.98,000.00,028.7,026.5,000.0,037.1,030.3,28.2,-001.1,0009.13,0004.46,0004.12
2023-07-01 23:28:00,SystemResetWarning,0833.4,5.01,000.00,028.7,026.8,000.0,037.1,030.4,27.1,-000.7,0009.13,0004.46,0004.11
2023-07-01 23:29:00,SystemResetWarning,0833.3,5.01,000.00,028.7,027.1,000.0,037.1,030.5,27.9,-000.6,0009.17,0004.48,0004.12
2023-07-01 23:30:00,SystemResetWarning,0833.3,4.99,000.00,028.8,027.4,000.0,037.2,030.5,28.6,-000.7,0009.14,0004.51,0004.11
2023-07-01 23:31:00,SystemResetWarning,0833.3,4.99,000.00,028.9,027.6,000.0,037.2,030.6,28.3,-000.5,0008.78,0004.52,0004.11
2023-07-01 23:32:00,SystemResetWarning,0833.2,5.00,000.00,028.9,027.9,000.0,037.2,030.7,29.1,-000.0,0008.80,0004.51,0004.10
2023-07-01 23:33:00,SystemResetWarning,0833.2,5.00,000.00,029.0,027.4,000.0,037.2,030.7,27.8,0000.3,0008.77,0004.48,0004.10
2023-07-01 23:34:00,SystemResetWarning,0833.2,5.00,000.00,028.9,025.6,000.0,037.1,030.4,27.2,0000.2,0008.80,0004.47,0004.09
2023-07-01 23:35:00,SystemResetWarning,0833.2,5.01,000.00,028.8,024.6,000.0,037.0,030.2,27.3,0001.2,0008.49,0004.48,0004.11
2023-07-01 23:36:00,SystemResetWarning,0833.3,5.01,000.00,028.7,024.7,000.0,037.0,030.0,28.5,0000.5,0008.59,0004.52,0004.13
2023-07-01 23:37:00,SystemResetWarning,0833.3,5.00,000.00,028.6,025.1,000.0,037.0,030.0,28.9,0000.0,0008.70,0004.55,0004.14
2023-07-01 23:38:00,SystemResetWarning,0833.3,5.01,000.00,028.6,025.6,000.0,037.1,030.1,29.6,0000.0,0008.39,0004.55,0004.15
2023-07-01 23:39:00,SystemResetWarning,0833.3,5.01,000.00,028.7,026.1,000.0,037.1,030.2,29.3,0000.0,0008.40,0004.56,0004.16
2023-07-01 23:40:00,SystemResetWarning,0833.4,5.00,000.00,028.7,026.5,000.0,037.1,030.3,27.3,0000.0,0008.42,0004.57,0004.19
2023-07-01 23:41:00,SystemResetWarning,0833.4,5.01,000.00,028.7,026.8,000.0,037.1,030.4,28.3,0000.0,0008.28,0004.58,0004.20
2023-07-01 23:42:00,SystemResetWarning,0833.4,4.99,000.00,028.8,027.2,000.0,037.2,030.5,28.4,0000.0,0008.15,0004.60,0004.22
2023-07-01 23:43:00,SystemResetWarning,0833.4,5.00,000.00,028.8,027.4,000.0,037.2,030.6,28.1,0000.0,0008.27,0004.63,0004.23
2023-07-01 23:44:00,SystemResetWarning,0833.4,4.99,000.00,028.9,027.7,000.0,037.2,030.6,28.1,0000.0,0008.22,0004.65,0004.25
2023-07-01 23:45:00,SystemResetWarning,0833.4,5.01,000.00,028.9,027.9,000.0,037.2,030.7,26.9,0000.0,0008.04,0004.67,0004.27
2023-07-01 23:46:00,SystemResetWarning,0833.4,4.99,000.00,029.0,027.1,000.0,037.2,030.6,27.0,0000.0,0007.97,0004.65,0004.27
2023-07-01 23:47:00,SystemResetWarning,0833.4,5.00,000.00,028.9,025.7,000.0,037.1,030.4,26.9,0000.0,0007.73,0004.63,0004.27
2023-07-01 23:48:00,SystemResetWarning,0833.4,5.01,000.00,028.8,025.5,000.0,037.1,030.2,26.9,0000.0,0007.47,0004.62,0004.27
2023-07-01 23:49:00,SystemResetWarning,0833.4,5.01,000.00,028.8,025.8,000.0,037.1,030.2,27.0,0000.0,0007.40,0004.61,0004.28
2023-07-01 23:50:00,SystemResetWarning,0833.4,4.99,000.00,028.8,026.2,000.0,037.1,030.3,27.1,0000.0,0007.52,0004.63,0004.28
2023-07-01 23:51:00,SystemResetWarning,0833.5,4.99,000.00,028.8,026.6,000.0,037.2,030.4,26.8,0000.0,0007.61,0004.64,0004.28
2023-07-01 23:52:00,SystemResetWarning,0833.5,5.01,000.00,028.8,026.9,000.0,037.2,030.5,26.8,0000.0,0007.70,0004.65,0004.28
2023-07-01 23:53:00,SystemResetWarning,0833.5,5.00,000.00,028.9,027.2,000.0,037.2,030.5,26.4,0000.0,0008.29,0004.68,0004.28
2023-07-01 23:54:00,SystemResetWarning,0833.6,4.99,000.00,028.9,027.5,000.0,037.3,030.6,26.3,0000.0,0008.62,0004.66,0004.28
2023-07-01 23:55:00,SystemResetWarning,0833.7,5.00,000.00,029.0,027.7,000.0,037.3,030.7,26.1,0000.0,0008.82,0004.67,0004.28
2023-07-01 23:56:00,SystemResetWarning,0833.7,4.99,000.00,029.0,027.8,000.0,037.3,030.8,26.3,0000.0,0008.93,0004.68,0004.27
2023-07-01 23:57:00,SystemResetWarning,0833.7,5.00,000.00,029.0,026.5,000.0,037.2,030.6,26.6,0000.0,0008.97,0004.68,0004.27
2023-07-01 23:58:00,SystemResetWarning,0833.7,5.00,000.00,029.0,024.8,000.0,037.1,030.4,26.6,0000.0,0008.99,0004.67,0004.26
2023-07-01 23:59:00,SystemResetWarning,0833.8,5.01,000.00,028.9,024.5,000.0,037.0,030.2,26.7,0000.0,0009.34,0004.65,0004.25
